Wind_Speed
10 10 9 8 8 7 7 7 6 6 6 7 7 7 9 10 11 12 12 12 12 12 12 11 11 10 11 11 10 10 10 10 9 9 9 9 10 11 10 9 8 7 8 9 9 9 9 9 9 8 6 5 3 3 3 3 4 4 5 4 4 3 2 1 1 3 6 8 9 10 13 16 18 20 20 21 21 21 20 19 17 15 12 9 7 5
10 10 9 9 8 8 7 6 6 6 6 7 8 9 10 11 11 11 11 10 10 9 9 8 9 9 10 10 11 11 11 10 10 9 8 9 10 10 10 8 7 7 9 9 9 8 8 7 6 5 4 2 2 1 1 2 3 4 5 4 3 2 1 2 2 1 4 6 7 7 8 10 12 14 16 17 17 17 17 15 13 10 8 6 4 3
11 10 10 9 8 7 6 5 5 6 6 8 9 10 10 10 10 10 9 8 8 7 6 6 7 7 8 9 10 11 12 12 11 10 10 10 10 10 10 9 8 9 9 9 8 7 6 5 4 3 2 2 1 0 0 2 3 4 4 4 4 4 3 2 1 3 5 6 5 5 4 5 5 6 7 8 10 10 10 9 8 6 4 3 3 3
11 10 9 8 7 6 6 5 5 6 7 8 9 10 10 9 9 9 8 7 6 6 6 6 6 6 7 8 9 10 12 13 12 12 12 12 11 11 11 11 10 10 9 7 6 4 3 3 2 2 1 1 1 1 1 2 3 4 4 4 4 5 6 6 6 7 7 6 4 3 2 2 2 2 2 1 1 2 3 3 3 3 3 3 3 3
10 8 7 5 4 4 5 5 5 6 7 8 9 9 9 8 8 8 8 7 6 6 6 6 6 6 6 6 7 9 11 12 13 13 13 13 13 13 13 13 11 9 8 6 5 3 2 2 1 1 1 2 2 2 2 2 2 3 4 5 5 6 6 7 7 7 6 6 5 3 1 1 1 1 1 2 2 2 1 1 2 2 3 4 5 4
8 7 5 4 3 3 4 5 5 6 7 7 8 8 9 9 9 8 8 7 6 6 6 6 6 6 6 6 7 8 9 11 13 14 14 14 13 14 15 14 12 10 8 7 5 4 3 2 1 1 2 3 4 4 2 2 3 4 5 5 5 6 6 6 7 6 6 6 5 4 2 1 1 0 1 2 3 3 3 3 4 4 5 6 6 6
7 7 5 4 4 4 4 5 5 5 6 6 7 8 8 9 9 8 8 7 6 6 5 5 5 5 5 7 8 8 8 10 11 13 14 14 14 15 15 15 13 11 10 9 7 5 4 3 2 2 3 5 5 5 3 2 3 4 5 6 6 6 6 6 6 6 6 6 5 5 3 3 2 1 2 2 3 4 4 4 4 4 5 5 6 5
6 6 5 5 5 5 5 5 5 5 6 6 7 8 8 8 8 8 7 6 6 5 4 3 3 3 4 6 7 7 7 8 9 11 13 14 14 14 14 15 14 13 12 11 9 6 5 4 4 4 4 6 6 5 3 2 3 4 5 5 6 6 5 5 6 6 6 6 5 5 4 4 3 2 2 2 2 3 3 3 3 3 3 4 4 4
7 6 6 5 5 4 4 4 5 5 6 6 7 8 9 9 8 7 6 6 6 6 5 3 2 2 2 5 6 6 6 6 7 9 12 13 14 14 13 14 15 15 14 12 9 7 5 5 5 5 6 7 6 5 2 1 2 3 4 4 5 5 5 5 5 6 6 6 6 6 5 4 4 3 3 3 4 4 4 4 4 4 3 3 3 3
6 5 5 5 5 4 4 4 5 5 6 7 7 8 8 8 7 7 7 7 7 7 6 5 4 3 2 3 4 5 5 5 5 6 9 12 13 12 12 13 15 15 14 12 9 7 6 6 7 7 7 7 6 4 2 1 1 2 2 3 3 4 5 6 6 6 6 6 6 6 5 4 4 4 4 5 5 6 7 6 6 5 4 4 3 3
4 5 4 3 4 4 4 4 5 5 6 7 7 7 6 6 6 7 8 8 9 9 9 8 7 6 5 4 3 4 4 3 3 4 6 9 11 10 10 12 14 15 14 12 10 8 8 8 8 8 7 7 5 3 2 1 1 1 1 2 3 5 6 7 8 8 7 7 6 5 4 4 4 4 5 5 6 7 7 7 6 6 6 6 6 6
3 4 4 4 4 4 4 5 5 5 6 6 7 6 6 5 5 6 7 8 9 10 11 10 9 8 7 6 4 3 3 2 1 2 3 5 7 9 10 12 14 14 14 12 10 9 9 9 9 8 8 6 5 3 2 0 0 0 1 3 4 6 8 9 9 9 9 8 7 6 6 5 5 5 5 5 6 6 6 6 6 7 7 8 9 9
4 4 4 5 5 5 5 5 5 5 5 6 6 6 5 5 5 6 6 7 9 10 11 11 10 9 7 6 5 4 3 2 2 2 3 4 6 8 11 13 15 15 14 13 11 11 11 10 10 9 7 6 4 3 2 1 0 0 1 3 5 7 8 9 9 9 9 9 8 8 8 8 7 7 6 6 7 7 7 7 7 8 9 9 10 10
5 5 5 5 6 6 6 6 5 5 5 5 5 5 5 5 5 6 6 7 9 10 10 9 9 8 6 5 4 4 3 3 3 3 4 5 6 9 12 14 15 15 14 13 13 12 12 11 10 9 7 5 4 3 2 1 1 1 2 3 5 6 7 8 9 9 10 10 10 10 10 10 9 8 7 7 8 8 9 9 9 10 10 11 12 12
6 6 6 5 5 5 5 5 5 6 6 5 6 6 6 5 5 6 6 8 9 10 9 8 7 6 4 4 3 2 3 3 4 5 6 7 8 9 12 13 14 14 14 14 14 13 13 11 9 8 7 5 4 3 2 2 1 1 2 3 4 5 6 8 9 10 11 11 11 11 11 10 9 9 8 8 9 10 10 11 12 12 13 13 14 15
7 6 5 5 5 5 6 6 6 6 6 6 6 6 5 4 5 6 7 8 8 9 8 7 6 4 2 2 2 2 2 3 5 6 9 9 10 11 12 14 15 15 14 14 14 14 12 10 9 7 6 5 4 3 2 2 2 2 2 3 4 5 7 8 9 10 11 11 11 11 10 10 9 9 9 9 10 10 11 12 13 14 14 15 16 16
7 6 5 5 6 6 7 7 7 7 7 6 6 5 5 5 6 7 7 8 7 6 5 4 4 3 3 2 2 2 2 2 4 6 8 9 11 12 13 14 15 16 16 15 14 13 12 10 8 7 6 5 4 3 3 2 2 2 2 3 4 6 7 8 9 10 11 11 11 11 11 10 10 10 10 10 10 10 11 12 13 13 13 14 14 15
6 5 5 6 7 7 7 7 7 7 6 6 5 5 6 6 7 7 7 6 5 4 4 3 3 3 4 3 3 3 2 3 3 4 7 8 9 11 13 14 15 16 16 15 15 13 11 9 8 7 7 6 5 4 3 3 3 3 3 4 4 5 6 8 9 9 10 11 11 11 11 11 10 10 10 10 10 10 11 11 11 11 11 11 11 12
6 7 7 8 8 8 7 7 7 6 6 5 5 5 5 6 6 6 5 5 5 4 4 4 4 3 3 3 3 3 3 3 3 3 5 6 8 9 11 12 13 14 15 15 14 13 11 10 9 8 8 7 6 5 4 4 4 4 4 4 5 5 6 7 8 8 9 10 10 10 10 10 10 10 9 10 10 10 10 10 10 10 10 10 10 10
8 9 9 9 9 8 7 7 7 6 6 6 6 6 6 6 6 5 4 4 4 4 4 5 5 4 3 4 4 3 3 3 3 3 3 5 6 8 10 11 11 13 14 14 13 12 11 10 9 9 9 8 7 6 6 5 5 5 5 5 6 6 7 7 8 8 9 9 9 10 10 10 9 9 9 10 10 10 10 10 10 10 10 10 10 10
9 9 9 9 8 8 7 7 7 6 6 6 6 6 6 6 5 4 3 3 3 3 4 5 5 4 4 4 4 4 3 3 3 3 3 3 5 7 9 10 11 12 13 13 13 12 11 11 10 10 10 9 8 8 7 6 6 6 6 6 7 7 8 8 9 9 10 10 10 10 10 10 10 10 10 10 10 10 10 10 10 10 10 11 11 10
7 8 7 7 7 7 6 6 6 6 6 6 6 6 6 6 5 4 3 3 2 2 3 3 3 3 4 4 4 4 4 4 3 3 3 3 4 5 8 9 11 12 13 13 13 13 12 12 12 11 11 10 10 9 9 8 8 7 7 7 8 8 9 9 10 10 11 11 11 11 11 11 11 11 11 11 11 10 10 10 10 10 10 11 11 11
4 5 5 6 6 6 6 6 6 6 6 6 6 6 6 5 4 3 3 3 3 2 2 2 2 3 3 3 3 3 4 4 4 4 3 3 3 4 6 8 10 12 13 14 14 14 14 14 13 13 12 12 12 11 11 10 10 9 9 9 9 9 10 11 11 12 12 12 12 12 12 12 12 12 11 11 11 11 11 11 11 11 11 11 11 11
3 3 4 4 5 5 5 5 6 6 6 6 6 6 6 5 5 4 4 4 4 4 3 3 3 3 3 3 3 3 4 4 5 4 3 3 4 4 5 6 8 10 12 13 14 15 15 15 15 15 14 14 13 13 13 13 12 12 12 11 11 11 11 12 12 13 13 14 14 14 14 13 13 13 12 12 12 12 12 12 11 11 11 11 11 11
3 3 3 3 4 4 4 5 5 5 5 5 5 6 6 6 5 5 5 5 5 5 4 3 3 3 3 3 3 3 3 4 5 4 4 3 4 5 5 6 6 8 10 12 13 14 15 16 16 16 16 15 15 15 15 15 15 15 14 14 14 13 13 12 13 13 14 14 15 15 15 15 14 14 14 13 13 13 12 12 12 12 12 11 11 11
3 3 2 2 2 3 3 3 4 4 4 5 5 5 5 5 5 5 5 5 4 4 4 3 3 4 4 4 4 4 4 4 4 4 4 4 4 5 7 7 7 7 9 10 11 12 13 15 15 15 16 16 16 16 16 16 16 16 16 16 16 16 15 15 14 14 14 15 15 15 15 16 16 15 15 14 14 13 13 13 13 12 12 12 11 11
2 2 2 2 1 1 2 2 3 3 3 4 4 4 4 4 4 3 3 3 3 3 3 2 3 4 4 4 3 3 4 4 4 4 5 5 4 5 6 7 7 7 8 9 10 11 12 13 13 14 15 15 16 16 16 17 17 17 17 17 18 18 17 17 16 16 15 15 15 15 16 16 16 16 16 15 14 14 13 13 13 13 13 12 12 12
2 2 2 2 1 1 1 1 1 2 2 2 2 1 1 1 2 2 2 1 2 2 2 2 2 3 3 3 3 3 5 5 5 5 5 4 4 4 5 6 7 7 8 9 10 12 12 13 13 14 14 15 15 16 16 17 17 18 18 18 18 18 19 18 18 18 17 16 16 16 16 16 16 16 16 16 15 14 14 14 13 13 13 12 12 12
3 3 2 2 2 2 2 2 1 0 0 1 2 2 1 0 0 1 0 0 1 2 2 2 2 2 2 3 5 5 5 5 5 5 5 4 4 5 6 6 7 7 8 8 9 10 10 11 12 12 13 14 15 16 16 17 18 18 18 19 19 19 19 19 19 19 19 18 17 16 16 16 16 16 16 16 15 15 14 14 14 14 13 13 13 13
4 3 3 3 3 3 2 2 2 1 1 2 2 2 2 1 1 1 1 0 1 1 2 2 2 2 2 3 4 4 4 4 4 4 4 4 4 5 6 5 6 6 6 5 4 4 5 6 7 7 8 10 11 12 13 14 15 16 17 17 18 18 18 18 19 19 19 19 18 18 17 17 16 16 16 16 16 15 15 14 14 14 14 14 14 14
4 4 4 3 3 3 2 2 2 1 2 2 2 2 2 2 2 1 1 0 0 1 1 1 2 2 3 2 1 1 2 2 2 2 3 3 3 4 5 5 5 5 5 3 2 2 2 3 3 2 2 3 4 5 7 8 9 11 12 13 14 14 15 16 16 17 18 19 19 19 18 18 17 17 16 16 16 16 16 15 14 14 15 15 15 15
4 4 3 3 3 2 2 2 2 2 2 2 2 2 2 2 2 2 1 1 0 1 1 1 2 3 4 4 3 2 2 2 2 3 3 3 3 4 4 4 4 5 4 3 3 2 1 3 3 2 1 2 3 3 4 5 6 7 8 8 9 10 11 12 13 15 16 17 19 19 20 20 19 18 18 17 17 16 16 15 15 15 16 16 16 15
4 3 3 3 2 2 2 2 2 2 2 2 2 2 2 2 2 2 1 1 1 1 1 1 2 3 4 5 5 5 4 4 4 5 5 4 4 4 4 4 4 4 4 4 5 5 4 4 3 4 5 7 8 8 8 8 9 9 9 8 8 8 8 9 10 12 13 15 16 18 19 20 20 20 20 19 18 17 16 16 16 16 16 16 16 15
3 3 3 3 3 3 3 3 3 3 3 3 3 2 2 2 2 1 1 0 1 1 1 2 2 3 4 5 6 6 6 6 6 6 6 5 4 4 5 4 4 4 5 5 5 5 5 6 6 6 8 10 12 12 12 11 11 11 10 10 9 9 9 9 10 11 12 13 14 15 17 18 20 21 21 21 20 18 17 16 16 16 16 16 16 15
4 4 3 3 3 3 3 3 3 3 3 3 3 3 2 2 2 1 1 0 1 1 2 2 3 3 4 5 5 6 5 6 6 7 7 6 5 5 5 5 5 5 5 5 5 4 4 6 7 7 6 8 10 11 11 11 10 9 9 9 9 9 9 10 10 11 12 12 13 14 15 16 18 19 20 21 21 20 18 17 16 16 15 16 15 15
5 5 4 4 4 4 4 4 4 4 4 4 4 3 3 3 2 2 1 1 1 1 2 2 3 3 4 5 5 6 6 6 7 7 7 7 7 6 5 5 5 5 5 5 5 5 4 5 7 8 7 7 8 8 8 8 7 7 7 8 8 9 9 10 10 11 12 12 12 13 13 14 15 17 18 19 19 20 19 18 16 16 15 15 15 15
6 6 6 5 5 5 5 5 5 5 5 5 4 4 3 3 2 2 2 2 2 2 2 3 3 3 4 4 5 5 6 7 7 7 7 8 8 7 6 6 6 6 6 6 6 7 6 6 7 8 8 7 6 5 5 6 7 7 8 8 9 9 9 10 10 10 11 11 11 11 12 12 13 14 15 16 17 18 19 19 18 17 16 15 15 15
8 7 7 6 6 6 6 6 6 6 5 5 4 3 2 2 2 2 3 3 3 3 3 3 4 4 4 4 5 5 5 6 6 7 7 7 8 8 7 7 8 8 7 8 8 8 8 7 7 7 7 7 7 7 8 9 9 10 10 11 11 10 10 10 10 10 10 10 10 11 11 11 12 12 12 13 14 16 17 19 19 19 18 17 16 15
9 8 8 7 7 7 7 6 6 6 5 5 4 3 2 1 1 2 2 3 4 4 4 4 4 5 5 5 5 5 5 5 6 6 6 7 7 8 8 8 8 8 8 9 9 9 9 8 7 6 6 7 8 9 10 10 11 12 14 15 14 13 11 10 10 10 10 11 11 11 11 11 11 11 11 11 12 13 14 16 17 18 18 18 17 16
9 8 8 7 7 6 6 6 5 5 5 5 4 3 2 1 1 2 3 3 4 5 5 5 5 5 5 5 5 5 5 5 5 5 6 6 7 7 8 8 8 8 8 9 9 10 10 10 11 11 10 10 10 11 11 12 14 16 17 16 16 14 13 12 12 12 11 11 11 10 10 10 9 10 10 10 10 11 12 13 14 15 16 17 16 16
9 8 8 7 7 6 6 5 5 5 6 6 5 5 4 3 2 3 3 4 5 6 6 7 7 6 6 6 5 5 5 5 5 5 5 5 6 7 7 7 8 8 8 9 9 10 11 11 12 13 14 15 15 16 17 17 17 17 17 16 17 17 16 14 12 11 10 9 8 8 8 8 8 8 8 9 10 10 10 11 11 11 12 14 15 15
10 9 7 7 7 7 7 6 7 7 7 7 7 6 5 4 4 4 4 5 5 6 7 7 7 6 6 5 5 5 4 4 4 4 4 5 5 6 6 7 7 7 8 9 9 10 10 11 12 13 14 15 15 16 17 18 17 16 16 16 17 17 15 11 8 6 6 5 6 6 6 7 8 8 8 8 9 10 10 11 10 10 10 12 13 14
9 8 7 7 7 7 8 8 8 8 8 8 8 7 6 6 5 5 5 5 6 6 7 7 7 7 6 5 4 4 3 3 3 3 4 4 5 5 5 6 6 7 8 9 9 10 10 10 11 12 12 13 14 15 17 18 17 16 15 15 15 14 10 9 8 7 7 7 7 8 8 8 9 8 8 8 9 9 10 11 11 11 11 11 12 13
8 8 7 8 8 9 9 9 9 9 9 9 9 8 7 7 6 6 6 6 7 7 6 6 7 7 6 5 4 3 3 4 4 4 5 5 5 5 5 5 6 7 8 9 10 10 11 11 11 11 11 12 13 15 16 17 18 17 16 15 15 14 12 12 12 12 11 11 10 10 11 11 11 11 10 9 9 9 10 11 12 12 12 11 12 13
8 8 8 9 9 9 10 10 10 10 10 10 9 9 8 8 8 7 7 7 7 6 6 6 6 5 5 4 4 5 6 6 6 5 6 6 6 5 5 5 5 6 7 8 9 10 11 12 12 12 11 12 14 15 16 17 18 18 17 16 15 15 16 15 15 14 13 13 12 12 12 12 12 12 12 11 10 9 9 10 11 12 13 13 13 13
10 10 10 10 11 11 11 10 10 10 10 10 10 10 9 9 8 8 7 7 6 6 6 6 6 5 4 4 5 7 8 8 7 6 5 6 6 6 6 5 6 6 6 7 8 9 10 11 12 12 13 14 15 16 17 17 18 18 18 16 16 16 15 15 14 13 13 13 12 12 11 12 12 12 12 12 11 10 9 9 10 11 13 13 14 14
13 13 12 12 12 12 12 12 12 12 12 12 11 11 10 9 9 8 7 7 6 5 5 5 5 5 5 6 7 8 9 10 10 8 6 5 5 5 5 5 6 6 6 7 7 8 8 9 10 11 13 15 16 17 17 16 16 17 17 16 15 15 15 14 12 11 11 11 11 11 10 11 11 12 12 12 12 11 10 9 9 10 11 12 14 15
15 15 14 14 14 14 14 14 14 13 13 13 12 11 11 10 9 8 7 6 5 5 4 4 5 5 6 7 7 7 8 9 10 10 8 6 5 5 5 5 5 6 6 7 7 8 8 9 10 11 12 14 16 17 17 15 14 14 14 14 13 13 13 11 10 8 8 8 8 8 8 9 10 11 11 12 12 12 11 10 8 8 9 10 12 14
16 16 16 16 16 16 16 16 15 15 15 14 13 12 11 10 9 8 7 6 5 5 4 5 5 6 7 7 7 7 8 8 9 9 9 7 6 5 5 5 5 5 6 7 7 8 9 10 10 11 11 12 13 14 14 12 11 10 10 10 10 11 11 10 9 8 7 6 6 6 6 7 7 8 10 11 12 13 12 11 10 8 8 8 10 11
16 17 17 17 17 17 17 17 17 16 16 15 14 12 11 10 9 8 7 6 6 5 5 5 6 7 7 8 7 7 7 8 8 8 7 7 6 5 5 5 5 6 6 6 7 7 8 9 9 9 8 8 8 8 9 8 8 7 8 8 8 9 9 10 9 9 8 7 7 6 5 5 5 6 8 10 11 12 13 12 11 9 8 7 8 9
16 16 17 17 17 17 17 17 17 17 16 15 14 12 11 11 10 9 8 7 7 6 6 6 7 7 8 8 8 8 8 7 7 7 6 6 5 5 5 5 5 6 6 6 6 6 7 7 6 5 4 3 3 3 4 5 6 7 7 7 7 8 9 10 10 10 9 9 8 7 6 5 5 5 7 8 10 11 13 13 12 10 8 7 7 7
Wind_Direction
183 187 195 204 211 217 223 237 245 253 266 279 289 299 307 312 313 312 310 308 305 300 296 290 285 280 273 265 259 257 259 257 253 251 253 257 255 251 249 250 251 250 250 253 260 269 280 285 285 280 274 266 253 242 246 260 282 301 315 324 328 328 325 49 53 18 24 39 60 86 106 116 121 123 124 127 131 135 138 142 146 148 149 152 157 162
188 193 197 205 212 218 226 242 250 258 273 289 298 305 312 316 317 316 314 312 308 302 296 290 285 280 270 261 254 251 250 247 243 239 240 245 249 249 248 248 245 244 246 252 262 274 281 280 272 261 246 225 205 207 246 291 310 316 318 315 309 303 307 118 115 8 357 11 26 49 76 96 107 113 117 120 124 128 132 136 140 143 145 147 149 151
190 194 200 207 213 220 231 251 265 276 286 299 306 312 318 320 321 321 321 318 312 305 298 291 287 280 271 263 255 249 245 240 235 231 229 229 235 242 247 246 241 238 241 251 263 275 276 267 251 232 209 183 166 165 317 324 324 322 318 306 284 259 243 232 284 307 319 335 353 14 36 55 72 86 101 111 117 122 126 130 133 133 130 128 127 127
191 193 201 210 217 226 240 262 285 298 304 309 314 318 322 325 326 327 326 323 316 306 300 297 293 288 281 272 262 252 245 239 234 229 226 222 223 230 239 241 238 236 239 246 258 266 262 246 225 205 191 193 215 244 283 317 322 319 312 298 277 259 253 265 278 289 297 308 323 342 0 13 19 19 23 39 81 106 119 126 128 124 120 122 122 122
191 194 203 212 223 238 253 270 289 304 314 318 321 324 327 329 330 330 329 325 316 306 301 300 299 298 296 290 279 265 252 243 236 231 227 223 219 222 230 234 236 236 238 241 247 250 247 235 213 196 205 230 236 240 254 300 316 311 300 290 278 267 260 262 266 270 275 282 288 297 307 331 354 343 314 297 290 285 266 228 190 169 157 146 137 130
193 197 207 217 232 250 272 284 293 304 317 321 322 324 327 329 330 331 331 328 320 311 306 306 306 307 307 305 297 282 266 251 241 233 228 224 221 220 223 227 232 236 239 239 241 245 251 254 246 230 225 232 235 237 251 296 312 304 290 279 272 267 260 254 250 250 254 259 261 259 248 228 212 252 268 267 264 260 253 238 219 199 181 167 154 143
202 209 219 232 248 260 273 287 298 305 314 316 317 319 323 326 329 331 331 329 325 319 315 314 314 312 309 303 297 289 278 263 247 236 228 225 222 219 219 222 226 231 235 236 239 246 258 267 269 256 239 236 235 237 251 292 310 302 287 273 267 262 256 246 237 232 233 238 240 236 227 218 216 229 254 263 260 254 249 239 224 208 193 181 172 163
210 222 233 241 252 261 267 278 291 300 305 308 312 316 320 324 328 330 329 328 327 327 327 324 321 313 299 292 290 289 285 272 254 239 229 224 221 219 216 218 221 226 229 230 235 245 261 273 276 266 249 239 236 236 245 287 309 301 284 270 261 258 256 245 231 219 215 217 220 221 218 215 217 226 241 244 241 235 225 216 205 194 188 190 192 192
213 227 241 247 251 256 263 269 280 292 303 308 312 317 322 326 329 330 330 331 332 334 337 333 329 317 292 286 287 288 286 276 259 241 230 225 222 218 212 213 217 222 224 225 229 240 259 273 278 270 252 240 234 231 236 276 306 296 277 263 258 256 256 250 236 221 209 205 203 203 204 208 214 221 223 217 207 196 186 178 174 173 177 190 204 217
213 224 240 250 252 252 261 275 282 291 304 309 311 315 322 328 331 332 333 335 335 336 340 339 335 327 311 294 290 287 282 274 258 241 231 227 224 219 209 209 213 218 220 221 226 237 255 269 274 266 250 238 229 223 222 262 295 285 264 250 247 250 252 251 244 233 220 209 202 200 201 211 225 236 235 227 218 207 199 195 196 201 209 217 225 235
213 224 233 248 260 266 272 282 287 294 302 305 307 312 320 328 330 330 332 335 334 333 336 341 339 332 324 315 301 287 274 262 247 235 230 227 223 217 208 208 211 214 215 216 222 235 251 263 265 258 244 232 221 214 206 232 296 271 230 215 224 235 243 245 243 240 235 228 221 220 226 241 255 260 253 242 229 221 217 220 229 241 251 254 254 255
218 227 235 247 261 272 276 280 282 288 295 301 308 315 322 327 325 322 322 327 327 326 327 332 336 335 329 324 316 295 269 251 233 230 228 227 218 207 199 200 203 205 206 209 217 230 245 254 253 246 233 221 212 201 187 147 348 247 204 205 215 227 234 236 235 236 237 238 240 246 258 269 274 275 270 260 247 239 237 246 257 266 270 271 268 266
226 233 241 250 256 261 265 269 274 282 290 298 301 302 305 307 307 308 310 313 314 315 317 322 326 329 330 324 313 296 268 235 207 209 226 225 212 199 193 192 193 196 200 206 215 227 238 243 240 231 220 209 198 186 159 127 104 220 212 214 220 226 232 233 234 235 238 243 249 258 265 270 271 272 272 270 265 262 262 266 270 273 274 273 272 268
227 233 239 245 250 255 260 265 272 280 284 285 285 284 284 284 287 292 298 299 302 306 310 315 318 322 326 324 313 291 264 224 199 203 218 217 209 200 193 190 191 196 202 208 216 225 233 233 228 219 209 198 186 171 150 133 139 212 230 228 229 232 235 240 243 245 248 251 255 259 262 262 262 261 263 265 266 268 268 270 271 272 272 272 271 270
221 226 230 236 244 252 259 264 270 274 271 267 268 270 273 274 279 286 291 293 298 304 309 314 316 318 324 334 328 300 264 221 205 202 204 205 205 201 197 194 196 201 207 212 218 224 229 226 218 209 202 192 181 167 150 143 161 211 237 242 242 243 244 247 250 251 252 254 255 256 256 255 253 253 255 258 261 263 266 268 270 271 272 272 272 271
221 222 225 234 245 253 256 258 259 259 258 258 261 264 267 270 280 289 295 298 302 307 314 320 322 322 334 359 359 331 282 233 218 210 202 197 198 200 199 197 199 205 213 217 219 222 224 219 212 205 198 190 183 175 161 160 174 206 233 244 247 249 250 251 252 254 254 254 255 255 254 254 253 254 256 259 262 264 267 270 271 273 274 274 274 274
222 225 231 240 248 253 253 251 251 251 253 257 263 270 274 280 289 296 302 304 306 307 309 312 314 312 315 1 18 359 319 276 242 224 212 203 198 198 198 196 197 203 212 217 220 221 219 215 210 205 201 197 194 188 182 182 192 209 229 243 249 251 252 253 255 256 257 258 259 259 260 261 262 264 267 270 272 274 275 276 277 278 278 278 278 277
227 234 240 243 247 251 250 248 246 246 250 256 265 275 283 289 295 301 304 304 300 293 287 285 286 292 304 327 353 354 336 318 287 247 228 221 212 204 199 197 198 202 208 213 218 221 219 217 213 210 208 207 206 204 205 207 212 221 234 246 252 256 258 259 260 261 262 264 265 266 267 268 271 273 276 279 282 283 284 285 286 286 286 286 285 284
233 241 241 241 243 245 244 241 240 243 250 259 270 281 288 294 298 301 302 297 290 280 272 267 265 269 285 303 324 336 328 321 311 279 242 237 230 219 208 202 200 202 206 210 216 220 221 222 222 220 218 217 218 219 222 225 229 237 245 254 261 264 265 266 266 267 268 270 271 272 273 275 277 279 282 286 288 290 292 293 295 295 296 295 294 292
234 238 237 237 236 236 235 236 239 247 257 269 278 285 289 292 294 295 295 293 284 273 264 262 261 263 274 289 304 312 313 313 314 304 267 251 241 232 223 215 210 207 208 212 218 223 226 229 230 229 228 227 229 232 237 240 245 251 259 267 271 273 273 272 272 273 273 275 276 277 278 279 281 283 286 290 293 295 297 300 302 303 304 303 302 299
232 232 233 234 233 231 231 237 247 257 265 273 278 282 284 285 286 287 289 290 283 274 266 264 263 265 270 279 292 305 305 310 323 325 302 272 253 240 232 226 222 219 216 218 223 229 233 236 238 237 235 235 237 241 247 252 255 260 265 269 273 275 276 275 274 274 275 275 276 277 277 279 280 283 286 289 292 295 298 301 303 305 305 305 304 303
229 228 228 232 235 235 237 244 252 260 268 272 275 278 278 279 279 279 279 280 281 284 284 281 277 276 277 285 295 303 303 306 311 314 308 290 269 251 239 234 231 229 227 226 229 233 238 241 242 242 241 240 241 244 247 250 252 255 255 255 260 266 271 272 273 273 274 274 274 273 273 274 276 279 282 286 289 292 294 297 298 299 300 300 300 300
223 224 225 231 236 241 245 250 255 261 267 272 274 276 278 278 274 269 268 269 274 281 292 296 292 289 293 301 302 302 300 299 295 292 291 284 277 265 249 241 237 235 234 234 234 237 239 242 243 244 244 244 244 246 248 248 248 247 246 247 250 256 262 266 268 269 270 271 270 269 268 268 269 272 275 279 283 286 289 291 293 294 294 294 294 294
207 214 222 230 237 242 247 252 257 262 267 272 275 278 281 279 274 269 265 263 266 270 278 282 289 298 304 306 305 300 295 292 289 282 272 268 275 275 264 251 244 241 240 239 239 240 241 243 244 244 245 245 246 247 249 250 251 250 249 248 248 250 254 259 262 265 266 266 265 264 263 263 263 264 268 273 276 280 283 286 289 290 290 289 288 288
190 200 212 223 232 240 247 253 258 263 267 270 273 275 275 274 270 267 264 263 265 271 279 289 300 306 305 301 296 292 287 284 281 272 256 261 275 279 273 265 258 253 249 245 243 243 244 245 246 246 247 247 248 248 249 250 251 252 252 252 252 251 251 253 256 258 260 261 261 261 259 259 259 260 264 267 271 275 278 281 283 286 287 287 285 283
180 190 201 215 230 246 258 265 269 272 270 268 266 265 264 264 263 261 258 259 266 274 283 292 299 299 297 297 296 291 285 282 282 273 254 254 270 280 277 274 270 265 261 257 253 250 249 249 249 248 248 249 249 250 250 251 251 251 252 252 253 253 253 252 252 253 255 257 257 257 256 256 257 260 262 265 268 270 272 275 278 281 283 284 282 279
169 180 191 207 226 249 265 278 286 289 284 276 266 261 259 259 258 253 245 251 262 272 278 281 290 296 299 298 296 288 283 283 284 278 265 258 263 273 277 276 275 274 273 270 266 261 258 256 253 252 251 252 252 252 252 253 252 252 251 251 252 252 253 253 251 250 251 252 253 254 254 256 258 260 262 264 264 266 267 269 272 276 279 280 277 274
166 177 186 189 194 199 201 221 265 296 303 309 312 302 271 260 251 239 227 246 262 262 256 253 267 288 308 312 300 284 281 285 285 278 269 255 252 262 270 274 277 280 283 284 280 274 269 265 263 260 257 256 255 255 255 255 255 254 253 253 253 253 253 253 251 250 248 249 250 252 253 255 257 260 262 262 262 262 263 265 268 271 274 273 271 269
163 172 174 173 169 167 167 169 173 178 3 21 37 43 52 108 191 169 177 271 271 249 236 232 237 256 284 292 287 282 281 282 279 271 267 250 247 257 263 271 277 282 289 295 291 284 276 273 270 267 262 259 257 256 255 255 256 256 256 256 256 256 255 254 253 250 247 246 246 249 251 253 256 258 261 262 261 260 260 262 264 266 268 268 267 267
160 164 164 162 160 157 155 155 151 137 97 75 65 64 69 95 131 140 134 201 266 253 241 225 220 228 249 274 285 287 282 277 269 266 266 252 247 254 266 270 274 279 288 299 304 296 283 278 277 273 265 260 258 256 256 257 257 258 259 259 259 259 258 258 256 252 248 245 244 245 247 250 252 255 258 260 261 260 259 260 260 262 263 265 266 266
158 161 161 158 155 154 151 149 142 127 107 91 81 74 74 86 110 124 122 120 249 264 265 227 213 216 229 249 270 300 297 281 267 270 276 263 257 265 278 273 274 277 280 275 296 309 290 299 308 303 278 269 269 267 266 266 266 266 265 264 263 262 261 259 257 254 250 246 244 243 245 247 249 252 255 258 260 260 260 259 258 258 259 262 264 266
157 159 160 159 155 153 151 148 140 131 117 107 97 90 84 84 85 86 83 65 3 288 267 229 216 223 231 238 241 262 303 291 284 289 296 286 278 284 294 280 275 276 273 244 250 268 256 315 330 346 334 317 313 310 303 298 293 288 282 277 272 267 263 261 258 255 252 249 246 245 245 247 248 249 252 255 258 260 259 258 257 256 257 259 261 264
161 161 162 162 160 156 151 146 143 133 124 117 110 103 97 90 85 76 63 35 358 329 295 251 223 226 238 245 251 261 281 282 282 287 296 294 287 286 293 284 276 273 272 252 248 252 257 284 301 306 295 293 293 295 296 296 295 293 290 285 280 274 269 265 262 260 257 253 250 248 248 249 249 250 250 252 254 256 257 257 256 255 255 256 259 262
176 175 173 171 166 160 155 149 143 135 128 122 117 112 106 101 93 84 63 14 338 321 304 285 253 231 236 243 251 259 270 274 277 282 286 289 287 285 287 283 278 276 276 266 255 252 260 267 278 291 294 292 291 291 291 291 289 288 286 283 280 278 275 272 270 267 264 261 258 255 253 253 253 253 252 252 251 251 251 252 253 253 252 254 256 259
197 194 191 185 180 172 164 156 147 139 132 126 122 116 111 105 99 84 63 2 319 301 293 286 275 260 249 247 249 255 262 269 273 275 277 280 283 285 286 282 279 278 278 273 264 258 265 270 276 283 292 297 297 295 294 292 289 287 284 282 281 280 279 278 276 273 271 268 266 264 261 260 259 257 256 254 252 249 247 247 248 248 249 251 254 257
210 206 203 198 191 183 174 164 156 148 140 133 126 119 110 100 87 72 52 28 351 320 303 290 283 278 272 265 260 258 261 266 270 271 272 274 277 280 282 279 277 275 275 271 266 263 271 279 283 285 288 293 296 297 297 294 291 286 283 282 282 281 281 280 279 278 277 275 274 272 270 268 265 263 260 257 253 249 245 243 243 244 244 247 251 256
216 213 211 206 200 191 182 172 163 156 149 141 133 122 110 96 79 61 42 25 6 348 330 312 299 291 285 281 277 272 269 269 269 270 271 272 273 275 274 273 273 272 270 271 270 270 273 281 287 289 288 284 283 288 294 291 287 282 278 279 279 280 282 283 284 284 283 283 281 280 278 275 272 268 264 259 254 249 244 241 240 240 240 241 245 251
218 219 217 214 208 200 190 179 169 160 154 148 142 133 120 100 71 48 30 16 3 351 339 325 315 304 296 291 286 282 278 274 272 272 272 272 273 273 271 269 270 270 269 270 272 273 275 279 285 288 285 280 277 280 286 289 287 284 280 278 278 280 283 285 287 287 287 287 286 286 285 282 278 273 268 261 255 249 245 242 239 239 239 239 240 243
221 224 223 221 216 207 197 184 171 162 157 157 159 160 157 129 58 23 9 358 349 342 332 322 313 306 299 295 290 286 282 278 276 274 274 273 273 273 272 270 270 270 270 269 269 271 271 271 273 277 283 286 285 286 287 288 288 287 286 286 284 282 282 282 283 284 285 288 290 292 291 288 283 277 270 264 257 252 248 245 243 242 241 241 239 238
225 229 231 229 225 217 206 192 178 170 170 177 186 198 210 226 279 318 329 332 332 329 324 317 310 303 297 291 287 284 280 279 277 277 278 276 275 274 273 272 271 271 270 268 268 267 268 268 268 269 272 278 283 285 287 287 288 290 293 294 294 292 289 286 283 283 285 288 292 296 298 296 290 282 274 266 260 255 253 251 248 246 244 242 240 237
226 231 234 232 227 220 213 202 192 188 190 197 205 214 225 238 258 283 301 312 316 318 316 313 307 301 294 288 283 279 277 278 279 281 282 281 280 277 275 274 273 272 270 269 268 267 267 269 271 272 273 277 280 283 284 285 287 291 294 295 297 298 299 295 290 286 285 287 292 300 306 309 307 298 286 274 265 258 255 255 253 250 246 241 238 235
228 232 233 227 221 216 213 209 204 202 203 209 216 223 230 241 254 269 284 294 300 304 306 304 301 295 288 281 277 274 273 276 280 285 287 286 284 281 278 276 274 273 272 271 271 270 270 272 274 276 278 281 283 284 285 288 290 291 292 294 298 302 304 303 297 287 279 278 284 295 306 314 317 313 301 287 273 263 257 255 254 253 248 242 236 233
230 231 229 222 215 212 212 212 212 212 213 218 223 227 233 241 252 264 276 283 289 295 298 297 295 291 285 279 273 268 268 270 277 283 286 285 281 279 277 276 274 273 272 272 273 274 276 277 279 281 284 286 286 285 285 290 293 294 295 297 301 303 304 302 297 286 274 271 275 283 292 299 305 306 302 293 281 269 260 255 253 251 249 244 239 235
230 230 224 216 210 209 211 215 218 221 223 225 227 228 232 238 249 262 273 281 287 293 295 295 293 290 289 290 287 277 269 270 277 282 281 278 274 272 271 271 270 270 271 272 274 277 281 282 284 287 289 288 287 285 286 289 292 295 298 300 300 297 292 294 296 293 286 281 279 281 285 289 292 293 293 291 285 275 265 258 253 250 248 245 243 240
232 228 221 214 212 213 216 219 222 225 227 229 228 227 228 235 246 258 270 279 287 292 294 294 295 297 298 301 299 291 281 278 279 283 281 276 269 265 264 265 267 268 269 271 274 276 279 281 284 289 290 289 286 285 285 288 292 295 298 301 301 299 297 297 297 298 297 293 289 287 286 287 287 287 287 287 285 280 272 263 256 252 249 247 245 244
231 227 222 217 215 216 218 221 224 227 228 228 226 225 227 235 245 258 270 281 289 293 296 296 298 299 298 300 300 300 299 296 293 289 284 280 272 264 260 262 265 268 270 272 273 274 276 278 282 286 287 286 285 285 286 289 292 295 299 302 302 301 299 298 299 300 300 299 296 293 290 288 287 286 287 286 284 282 276 268 260 255 251 248 247 247
230 229 225 221 218 218 219 221 224 226 227 226 224 224 228 236 247 259 271 283 292 298 298 298 297 294 293 295 301 306 312 315 316 314 305 293 279 270 264 264 265 267 271 275 277 278 279 280 282 283 282 281 282 285 289 293 295 296 299 304 305 305 304 305 308 309 307 303 300 298 294 291 290 290 289 287 285 282 277 271 265 259 254 251 249 249
231 231 229 226 222 221 220 221 223 225 225 224 224 227 232 240 249 257 266 280 293 298 294 290 288 288 289 294 302 311 315 318 321 324 326 316 296 278 271 271 272 272 271 275 279 283 284 283 282 282 281 278 278 281 289 296 300 301 304 307 309 310 312 321 329 331 324 317 309 303 297 294 293 293 293 291 288 284 279 275 271 264 258 255 253 252
234 233 232 229 226 224 223 223 223 224 224 224 224 227 232 241 249 254 260 274 287 289 282 278 279 281 283 289 300 311 314 316 320 327 332 331 323 305 290 285 284 283 283 283 284 285 286 284 282 280 280 279 278 280 290 298 305 310 312 315 317 320 326 338 350 355 351 344 333 319 305 297 292 290 291 292 292 290 286 281 277 271 266 262 259 257
238 236 235 232 229 226 225 224 224 223 223 224 225 227 232 238 244 249 257 269 278 279 274 274 274 276 279 287 297 306 310 315 321 330 337 341 335 321 310 304 302 305 308 311 310 309 306 299 291 283 280 280 282 285 292 303 315 322 322 328 332 334 337 346 356 2 2 358 354 344 329 315 302 294 290 290 292 292 291 287 283 279 276 274 271 268
237 237 236 233 231 229 227 227 226 225 225 226 227 229 232 235 238 242 251 261 269 274 274 275 275 275 277 285 295 302 305 310 317 327 339 345 340 331 326 322 321 327 334 336 335 335 335 328 316 304 296 284 296 312 310 314 321 325 326 338 346 348 347 351 355 358 357 356 354 350 343 333 321 308 300 296 294 293 293 293 292 291 291 292 292 290
Height
812 812 813 813 814 814 813 813 813 813 813 813 813 813 813 814 813 813 813 813 813 813 813 812 812 812 812 812 812 812 812 813 813 813 813 813 813 813 813 814 814 814 815 815 815 815 815 814 814 814 814 815 815 815 815 815 815 816 816 816 816 816 816 815 814 814 814 813 813 811 810 810 810 810 810 810 810 810 811 812 813 814 815 816 816 817
811 812 812 813 813 813 813 813 813 813 813 813 813 813 813 813 812 812 812 812 812 812 812 811 811 811 811 811 811 811 811 811 811 812 812 812 812 812 812 813 813 814 814 814 814 814 814 814 814 814 814 814 814 815 815 815 815 815 815 815 816 816 816 815 814 814 814 814 814 814 814 813 812 812 812 812 812 812 812 813 814 815 816 816 817 817
810 811 811 812 812 812 812 812 812 812 812 812 812 812 812 812 811 811 811 811 811 811 811 810 810 810 810 810 810 810 810 810 810 810 811 811 812 812 812 812 813 813 813 813 813 813 813 813 813 813 814 814 814 814 815 815 815 815 815 815 815 816 816 815 815 814 815 815 815 815 815 815 815 815 815 814 814 814 814 814 815 816 816 817 817 817
810 810 810 811 811 811 811 811 811 811 811 811 811 811 811 811 810 810 810 810 810 810 810 810 810 810 809 809 809 809 809 809 809 810 810 810 811 811 811 811 812 812 812 813 813 813 813 813 813 813 813 813 814 814 814 815 815 815 815 815 815 815 815 815 815 815 815 815 815 815 815 815 815 815 815 815 815 815 815 815 816 816 817 817 818 818
809 810 810 810 810 810 810 811 811 811 810 810 810 810 810 810 810 810 810 810 810 810 809 809 809 809 809 808 808 808 808 808 808 808 809 809 810 810 810 810 811 811 812 812 812 813 813 813 813 813 813 813 814 814 814 814 815 815 815 815 815 815 815 815 815 815 815 815 815 815 815 815 815 815 815 816 816 816 816 816 816 817 817 817 818 818
808 809 809 809 810 810 810 810 810 810 810 810 810 810 810 809 809 809 809 809 809 809 809 809 808 808 808 808 808 807 807 807 807 807 808 808 809 809 810 810 810 810 811 811 812 812 812 812 812 813 813 813 814 814 814 814 814 815 815 815 815 815 815 815 815 815 815 815 815 815 815 815 815 815 815 816 816 816 816 816 817 817 817 817 818 818
806 807 808 809 809 809 809 810 810 810 810 810 810 810 809 809 809 808 808 808 808 808 808 808 808 808 807 807 807 807 806 806 806 806 807 807 808 808 808 809 810 810 810 811 811 811 812 812 812 812 813 813 813 814 814 814 814 814 815 815 815 815 815 815 815 815 815 815 815 815 815 815 815 815 816 816 816 816 816 817 817 817 817 817 817 818
805 806 807 808 808 809 809 809 809 809 810 810 809 809 809 808 808 807 807 807 807 807 808 808 808 807 807 807 806 806 805 805 805 805 806 806 807 807 808 808 809 809 810 810 810 811 811 811 812 812 812 813 813 813 814 814 814 814 814 814 815 815 815 815 815 815 815 815 815 815 815 815 815 816 816 816 816 816 817 817 817 817 817 817 817 818
803 805 806 807 807 808 808 808 808 809 809 809 809 808 808 807 807 807 807 806 807 807 807 807 807 807 807 806 806 805 805 805 805 805 805 805 806 806 807 807 808 808 809 810 810 810 811 811 811 812 812 812 813 813 813 814 814 814 814 814 814 815 815 815 815 815 815 815 815 815 815 815 815 816 816 816 816 817 817 817 817 817 818 818 818 818
802 804 805 806 806 807 807 808 808 808 808 808 808 808 807 807 806 806 806 806 806 806 807 807 807 806 806 806 805 805 805 804 804 804 804 805 805 805 806 807 807 808 808 809 809 810 810 810 811 811 812 812 812 812 813 813 814 814 814 814 814 814 815 815 815 815 815 815 815 815 815 815 815 816 816 816 816 816 817 817 817 817 817 817 817 817
802 803 805 805 806 806 806 807 807 807 808 808 808 807 807 807 806 806 806 806 806 806 806 806 806 806 806 805 805 805 805 804 804 804 804 804 805 805 806 806 807 807 808 808 809 809 810 810 810 811 811 811 812 812 813 813 813 813 813 814 814 814 814 815 815 815 815 815 815 815 815 815 815 815 816 816 816 816 816 817 817 817 817 817 817 817
802 803 804 805 805 805 806 806 806 807 807 807 807 807 807 806 806 806 806 805 806 806 806 806 806 806 805 805 805 805 804 804 804 804 804 804 804 805 805 806 806 807 807 808 808 809 809 810 810 810 811 811 811 812 812 812 813 813 813 813 814 814 814 814 815 815 815 815 815 815 815 815 815 815 816 816 816 816 816 816 817 817 817 817 817 817
801 802 803 804 804 805 805 805 806 806 806 807 807 807 807 806 806 806 806 806 806 806 805 805 805 805 805 805 804 804 804 804 804 804 804 804 804 804 805 805 806 806 807 807 808 808 809 809 810 810 810 811 811 812 812 812 812 812 813 813 813 814 814 814 814 814 814 814 814 815 815 815 815 815 815 816 816 816 816 816 816 816 816 816 816 816
801 802 803 803 804 804 804 805 805 805 806 806 806 807 806 806 806 806 805 805 805 805 805 805 805 805 805 804 804 804 804 804 804 804 804 804 804 805 805 805 805 806 806 807 807 808 808 809 809 810 810 810 811 811 811 812 812 812 812 813 813 813 814 814 814 814 814 814 814 814 814 815 815 815 815 815 816 816 816 816 816 816 816 816 816 816
801 802 802 802 803 803 804 804 805 805 805 806 806 806 806 806 805 805 805 805 805 805 805 805 805 805 804 804 804 803 803 803 804 804 804 804 804 805 805 805 805 806 806 806 807 807 808 808 809 810 810 810 811 811 811 811 812 812 812 812 813 813 813 813 814 814 814 814 814 814 814 814 814 815 815 815 815 815 815 815 815 815 815 815 815 815
801 801 801 802 802 803 803 804 804 805 805 805 805 805 805 805 805 805 805 805 805 805 805 805 804 804 804 804 803 803 803 803 803 804 804 804 804 805 805 805 805 805 806 806 807 807 808 808 809 809 810 810 810 811 811 811 811 812 812 812 812 813 813 813 813 813 813 813 813 813 814 814 814 814 814 814 815 815 815 815 815 815 815 815 814 814
800 800 800 801 801 802 803 804 804 804 805 805 805 805 805 805 805 805 804 804 804 805 805 804 804 804 803 803 803 803 803 803 803 803 804 804 804 804 805 805 805 805 805 806 806 807 807 808 809 809 810 810 810 810 811 811 811 811 812 812 812 812 812 812 813 813 813 813 813 813 813 813 813 813 813 814 814 814 814 814 814 814 814 814 813 813
800 800 800 801 801 802 803 803 804 804 804 804 804 804 804 804 804 804 804 804 804 804 804 804 804 804 803 803 803 803 803 803 803 803 804 804 804 804 805 805 805 805 805 805 806 807 807 808 808 809 809 810 810 810 810 811 811 811 811 811 811 812 812 812 812 812 812 812 812 812 812 813 813 813 813 813 813 813 813 813 813 813 813 813 812 812
799 799 800 801 801 802 803 803 803 803 803 804 804 804 804 804 804 804 804 804 804 804 804 804 804 803 803 803 803 803 803 803 803 803 803 804 804 804 805 805 805 805 805 805 806 806 807 808 808 809 809 809 810 810 810 810 810 810 811 811 811 811 811 811 811 811 812 812 812 812 812 812 812 812 812 812 812 812 813 812 812 812 812 812 812 811
798 799 800 801 801 802 802 802 803 803 803 803 803 803 804 804 804 804 804 804 804 804 804 803 803 803 803 803 803 803 803 803 803 803 803 803 804 804 804 805 805 805 805 805 806 806 807 807 808 808 809 809 809 809 810 810 810 810 810 810 810 810 810 811 811 811 811 811 811 811 811 811 811 812 812 812 812 812 812 812 812 811 811 811 811 811
798 799 800 800 801 801 802 802 802 802 802 803 803 803 803 803 803 803 803 803 803 803 803 803 803 803 803 802 802 803 803 803 803 803 803 803 803 804 804 805 805 805 805 805 806 806 807 807 807 808 808 808 809 809 809 809 809 809 809 809 810 810 810 810 810 810 810 810 811 811 811 811 811 811 811 811 811 811 811 811 811 811 811 810 810 810
798 798 799 800 800 800 801 801 801 802 802 802 802 802 803 803 803 803 803 803 803 803 803 802 802 802 802 802 802 802 802 803 803 803 803 803 803 803 804 804 805 805 805 805 806 806 806 806 807 807 808 808 808 808 808 809 809 809 809 809 809 809 809 809 810 810 810 810 810 810 810 810 810 810 810 811 811 811 811 811 810 810 810 810 810 810
797 798 798 799 800 800 800 800 801 801 801 801 802 802 802 802 802 802 802 802 802 802 802 802 802 802 802 802 802 802 802 802 803 803 803 803 803 803 803 804 804 804 805 805 805 806 806 806 806 807 807 807 807 808 808 808 808 808 809 809 809 809 809 809 809 809 809 809 810 810 810 810 810 810 810 810 810 810 810 810 810 810 810 810 810 809
796 797 798 798 799 799 800 800 800 800 800 801 801 801 801 801 802 802 802 802 802 802 802 802 802 802 802 802 802 802 802 802 803 803 803 803 803 803 803 803 804 804 804 805 805 805 805 805 806 806 806 806 807 807 807 807 807 808 808 808 808 809 809 809 808 808 808 809 809 809 809 809 810 810 810 810 810 810 810 810 809 809 809 809 809 809
796 797 797 798 798 799 799 799 800 800 800 800 800 800 800 801 801 801 801 801 801 801 801 801 802 802 802 802 802 802 802 802 802 803 803 803 803 803 803 803 803 803 803 804 804 804 805 805 805 805 805 806 806 806 806 806 806 807 807 807 807 807 808 808 808 808 808 808 808 808 808 809 809 809 809 809 809 809 809 809 809 809 809 808 808 808
796 796 797 798 798 798 799 799 799 799 799 800 800 800 800 800 800 800 800 801 801 801 801 801 801 801 801 801 801 802 802 802 802 803 803 803 803 803 803 803 803 803 803 803 803 803 804 804 804 804 805 805 805 805 805 805 805 805 806 806 806 806 807 807 807 807 808 807 807 807 807 808 808 808 808 808 808 808 808 808 808 808 808 808 808 807
796 796 797 797 798 798 798 798 798 799 799 799 799 799 800 800 800 800 800 800 800 800 801 801 801 801 801 801 801 801 802 802 802 802 803 803 803 803 802 803 803 803 802 802 802 802 803 803 803 803 803 804 804 804 804 804 804 804 805 805 805 805 805 805 806 806 807 807 807 807 807 807 807 807 807 807 807 807 807 807 807 807 807 807 807 807
796 796 797 797 797 798 798 798 798 798 798 798 798 799 799 799 799 799 800 800 800 800 800 801 801 801 801 801 801 801 801 802 802 802 802 803 803 803 802 802 802 802 802 802 801 801 801 801 802 802 802 802 802 803 803 803 803 803 803 803 803 804 804 804 805 805 805 806 806 806 806 806 806 806 806 806 806 806 806 806 806 806 806 806 806 806
795 796 796 797 797 797 797 797 798 798 798 798 798 798 798 798 799 799 799 799 799 800 800 800 800 801 801 801 801 801 801 802 802 802 802 802 803 802 802 802 802 802 802 801 801 800 800 800 800 800 801 801 801 801 801 801 801 801 802 802 802 802 802 803 803 803 804 804 805 805 805 805 805 805 805 805 805 805 806 806 806 805 805 805 805 805
795 796 796 796 797 797 797 797 797 797 797 797 798 798 798 798 798 798 799 799 799 799 799 800 800 800 801 801 801 801 801 801 802 802 802 802 802 802 802 802 802 802 802 802 801 800 799 799 799 799 799 800 800 800 800 800 800 800 800 800 801 801 801 801 802 802 802 803 803 803 804 804 804 804 804 805 805 805 805 805 805 805 805 804 804 804
795 795 795 796 796 796 796 796 797 797 797 797 797 797 797 798 798 798 798 798 799 799 799 799 800 800 800 801 801 801 801 801 802 802 802 802 802 802 802 802 802 802 802 802 801 800 800 799 798 799 799 799 799 799 799 799 800 800 800 800 800 800 800 800 800 800 801 801 801 802 802 802 803 803 803 804 804 804 804 804 804 804 803 803 803 803
794 795 795 795 795 795 796 796 796 796 797 797 797 797 797 797 798 798 798 798 798 798 799 799 800 800 800 801 801 801 801 801 801 802 802 802 802 802 802 802 801 801 801 802 801 801 800 799 798 798 798 799 799 799 799 799 799 799 799 799 799 799 799 799 799 800 800 800 800 800 801 801 801 802 802 802 803 803 803 803 803 803 803 802 802 802
794 794 795 795 795 795 795 795 796 796 796 796 797 797 797 797 798 798 798 798 798 798 798 799 799 800 800 801 801 801 801 801 801 801 801 801 801 801 801 801 801 801 801 801 801 801 800 800 799 798 798 798 798 799 799 799 799 799 799 799 799 799 799 799 799 799 799 799 799 799 800 800 800 800 800 801 801 801 802 802 802 802 802 801 801 801
793 794 794 794 794 795 795 795 795 796 796 796 797 797 797 797 797 798 798 798 798 798 798 799 799 800 800 800 801 801 801 801 801 801 801 801 801 801 801 801 801 801 801 801 801 800 800 800 799 799 798 798 798 798 798 798 798 798 798 798 798 798 798 798 798 798 798 798 798 798 798 799 799 799 799 799 799 800 800 800 801 801 801 800 800 800
793 793 793 794 794 794 795 795 795 795 796 796 796 797 797 797 797 797 797 798 798 798 798 798 799 799 800 800 800 801 801 801 801 801 801 801 801 801 801 801 801 801 800 800 800 800 800 799 799 799 798 797 797 797 797 797 797 797 797 797 797 797 797 797 797 797 797 797 797 797 797 797 797 797 797 797 798 798 798 799 799 800 800 800 800 799
792 792 793 793 793 794 794 795 795 795 795 796 796 796 797 797 797 797 797 797 798 798 798 798 799 799 799 800 800 800 800 800 800 800 800 800 800 800 800 800 800 800 800 800 800 800 800 799 799 798 798 798 797 797 796 797 797 797 797 797 797 796 796 796 796 796 795 795 795 796 796 795 795 795 795 796 796 796 797 797 798 798 799 799 799 798
792 792 792 793 793 793 794 794 795 795 795 795 796 796 796 797 797 797 797 797 797 798 798 798 798 799 799 799 799 800 800 800 800 800 800 800 800 800 800 800 800 800 800 800 800 800 799 799 798 798 798 798 797 797 796 796 796 796 796 796 796 796 795 795 795 795 795 795 795 795 795 794 794 794 794 794 794 795 795 795 796 796 797 797 798 798
791 791 791 792 792 793 793 794 794 794 795 795 795 795 796 796 796 797 797 797 797 798 798 798 798 798 799 799 799 799 799 799 799 799 799 799 799 799 799 799 799 799 799 799 799 799 799 799 798 798 797 797 797 797 796 796 796 795 795 795 795 795 795 795 795 794 794 794 794 794 793 793 793 793 793 793 793 793 793 794 794 795 795 795 796 796
790 790 791 791 792 792 793 793 793 794 794 795 795 795 795 796 796 796 797 797 797 797 798 798 798 798 798 798 799 799 799 799 799 799 799 799 799 799 799 799 798 798 798 798 798 798 798 798 798 798 797 796 796 796 796 796 795 795 795 794 794 794 794 794 794 793 793 793 793 793 792 792 792 792 792 792 792 792 792 792 793 793 794 794 794 795
789 789 790 790 791 791 792 792 793 793 794 794 794 795 795 795 796 796 796 797 797 797 797 797 798 798 798 798 798 798 798 798 798 798 798 798 798 798 798 798 798 798 798 797 797 797 797 797 797 797 797 796 796 796 795 795 795 795 794 794 793 793 793 793 793 793 792 792 792 792 791 791 791 791 791 791 791 791 791 791 792 792 792 793 793 794
788 789 789 790 790 791 791 792 792 793 793 794 794 794 795 795 795 795 796 796 796 797 797 797 797 797 797 798 798 798 798 798 798 798 798 797 797 797 797 797 797 797 797 797 797 796 796 796 796 796 796 796 795 795 795 795 794 794 794 794 793 792 792 792 792 791 791 791 791 791 791 790 790 790 790 790 790 790 790 790 791 791 791 792 792 792
787 788 788 789 790 790 791 791 792 792 793 793 793 794 794 795 795 795 795 796 796 796 796 796 796 797 797 797 797 797 797 797 797 797 797 797 797 797 797 796 796 796 796 796 796 796 796 796 795 795 795 795 795 795 794 793 793 794 793 793 792 791 791 790 790 791 791 791 791 790 790 790 790 790 789 789 789 790 790 790 790 790 790 791 791 791
786 787 788 788 789 790 790 791 791 792 792 793 793 793 794 794 795 795 795 795 795 796 796 796 796 796 796 796 797 797 797 797 797 797 797 796 796 796 796 796 796 796 795 795 795 795 795 795 795 795 795 795 795 794 793 792 792 792 792 792 792 791 790 790 790 790 790 790 790 790 790 789 789 789 789 789 788 789 789 789 789 789 790 790 790 790
785 786 787 787 788 789 789 790 790 791 791 792 792 793 793 794 794 794 795 795 795 795 795 795 795 795 795 796 796 796 796 796 796 796 796 796 796 795 795 795 795 795 795 795 795 795 794 794 794 794 794 794 794 793 792 792 791 791 791 791 791 791 790 790 789 789 789 789 789 789 789 788 788 788 788 788 788 788 788 788 788 788 789 789 789 790
785 785 786 786 787 788 788 789 790 790 791 791 792 792 793 793 793 794 794 794 794 795 795 795 795 795 795 795 795 795 795 795 795 795 795 795 795 795 795 795 795 794 794 794 794 794 794 793 793 793 793 793 793 792 792 791 791 790 790 790 790 790 789 789 789 788 788 788 788 788 788 787 787 787 787 787 787 787 787 787 787 787 788 788 788 789
784 784 785 785 786 787 787 788 789 790 790 790 791 792 792 792 793 793 793 794 794 794 794 794 794 794 795 795 795 795 795 795 795 795 795 794 794 794 794 794 794 794 793 793 793 793 793 793 793 793 792 792 792 791 791 791 790 790 790 790 789 789 788 788 788 787 787 787 787 786 786 786 786 786 786 785 786 786 786 786 786 786 787 787 787 787
782 783 784 785 785 786 786 787 788 788 789 790 790 791 791 791 792 792 792 793 793 793 793 793 793 794 794 794 794 794 794 794 794 793 793 793 793 793 793 793 793 793 792 792 792 792 792 792 792 792 792 791 790 790 790 790 790 790 789 789 788 788 787 787 787 786 786 786 785 785 785 785 785 785 785 785 785 785 785 785 785 785 786 786 786 786
781 782 783 784 784 785 785 786 787 787 788 789 789 790 790 791 791 791 792 792 792 792 793 793 793 793 793 793 794 794 793 793 793 793 792 792 792 792 792 792 792 792 792 792 791 791 791 791 791 791 791 790 790 789 789 789 789 789 789 788 788 787 787 786 786 785 785 785 785 785 785 784 784 784 784 784 784 783 784 784 784 785 785 785 785 785
780 781 782 782 783 784 785 785 786 786 787 788 788 789 790 790 790 791 791 791 791 792 792 792 792 792 793 793 793 793 793 793 793 792 792 792 791 791 791 791 791 791 791 791 791 791 790 790 790 790 790 790 789 789 788 788 788 788 788 788 787 787 786 786 785 785 785 784 784 784 784 784 783 783 783 783 783 782 782 783 783 783 784 784 784 784
780 780 781 781 782 783 783 784 785 785 786 787 788 788 789 789 790 790 790 790 791 791 791 791 792 792 792 792 792 792 792 792 792 792 792 791 791 791 791 791 791 791 790 790 790 790 790 790 789 789 789 789 789 788 788 788 788 788 788 787 787 787 786 785 785 785 784 784 784 783 783 783 783 783 783 782 782 782 781 781 782 782 783 783 783 783
779 779 780 780 781 782 782 783 784 785 785 786 787 787 788 788 789 789 790 790 790 790 790 791 791 791 791 791 791 792 792 792 792 791 791 791 791 791 790 790 790 790 790 790 790 790 790 790 789 788 788 788 788 788 788 788 787 787 787 787 787 786 786 785 785 785 784 784 783 783 783 782 782 782 782 782 781 781 781 780 780 781 782 782 782 782